KC5TIL Weather Reports


Display with metric or nautical units.
time (UTC)temp
F
wind
direction
speed
MPH
gust
MPH
rain 1hr
in
rain 24hr
in
rain mn
in
humidity
%
barometer
mb
20260903035616 86 174 2.0 3.0 0.00 0.00 0.00 67 1014.6
20260903035112 86 104 2.0 3.0 0.00 0.00 0.00 66 1014.5
20260903034606 86 148 2.0 6.0 0.00 0.00 0.00 65 1014.5
20260903034101 87 121 2.0 3.0 0.00 0.00 0.00 65 1014.6
20260903033557 87 134 2.0 3.0 0.00 0.00 0.00 65 1014.4
20260903033052 87 131 0.0 3.0 0.00 0.00 0.00 65 1014.4
20260903032547 87 136 1.0 2.0 0.00 0.00 0.00 65 1014.4
20260903032042 87 143 1.0 3.0 0.00 0.00 0.00 64 1014.5
20260903031542 87 81 4.0 6.0 0.00 0.00 0.00 64 1014.4
20260903031037 87 123 3.0 3.0 0.00 0.00 0.00 63 1014.3
20260903030532 87 86 0.0 2.0 0.00 0.00 0.00 64 1014.4
20260903030029 88 133 1.0 6.0 0.00 0.00 0.00 62 1014.2
20260903025524 88 137 1.0 3.0 0.00 0.00 0.00 64 1014.1
20260903025020 88 141 3.0 6.0 0.00 0.00 0.00 60 1014.1
20260903024519 88 150 1.0 2.0 0.00 0.00 0.00 62 1013.7
20260903024013 88 141 2.0 2.0 0.00 0.00 0.00 61 1013.7
20260903023509 89 172 2.0 8.0 0.00 0.00 0.00 60 1013.7
20260903023004 89 175 2.0 3.0 0.00 0.00 0.00 59 1013.8
20260903022504 89 158 2.0 3.0 0.00 0.00 0.00 60 1013.6
20260903022001 89 155 1.0 3.0 0.00 0.00 0.00 59 1013.5
20260903021457 90 116 1.0 7.0 0.00 0.00 0.00 58 1013.5
20260903020952 90 162 3.0 6.0 0.00 0.00 0.00 58 1013.3
20260903020448 90 109 1.0 3.0 0.00 0.00 0.00 59 1013.4
20260903015942 90 100 3.0 6.0 0.00 0.00 0.00 58 1013.3
20260903015438 90 137 1.0 5.0 0.00 0.00 0.00 58 1013.0
20260903014933 91 137 2.0 2.0 0.00 0.00 0.00 60 1013.0
20260903014432 91 102 2.0 3.0 0.00 0.00 0.00 60 1013.0
20260903013927 91 206 4.0 9.0 0.00 0.00 0.00 57 1012.9
20260903013427 91 150 5.0 7.0 0.00 0.00 0.00 57 1012.8
20260903012921 91 134 3.0 5.0 0.00 0.00 0.00 58 1012.6
20260903012420 91 131 2.0 5.0 0.00 0.00 0.00 56 1012.6
20260903011919 92 161 2.0 6.0 0.00 0.00 0.00 56 1012.7
20260903011415 92 116 3.0 7.0 0.00 0.00 0.00 54 1012.5
20260903010909 93 152 1.0 5.0 0.00 0.00 0.00 55 1012.5
20260903010405 93 135 1.0 3.0 0.00 0.00 0.00 53 1012.3
20260903005902 93 131 2.0 5.0 0.00 0.00 0.00 51 1012.3
20260903005358 93 90 3.0 6.0 0.00 0.00 0.00 53 1012.3
20260903004855 93 175 2.0 5.0 0.00 0.00 0.00 52 1012.2
20260903004350 93 114 3.0 7.0 0.00 0.00 0.00 53 1012.3
20260903003844 93 79 3.0 6.0 0.00 0.00 0.00 51 1012.3
20260903003339 93 153 2.0 6.0 0.00 0.00 0.00 57 1012.3
20260903002839 93 99 2.0 6.0 0.00 0.00 0.00 56 1012.2
20260903002333 94 85 2.0 7.0 0.00 0.00 0.00 53 1012.1
20260903001828 94 80 4.0 7.0 0.00 0.00 0.00 56 1012.0
20260903001324 95 90 3.0 7.0 0.00 0.00 0.00 53 1011.9
20260903000824 96 117 2.0 2.0 0.00 0.00 0.00 52 1012.0
20260903000319 96 100 1.0 2.0 0.00 0.00 0.00 51 1012.1
20260902235816 96 89 2.0 2.0 0.00 0.00 0.00 51 1011.9
20260902235312 96 91 3.0 8.0 0.00 0.00 0.00 46 1011.8
20260902234811 97 125 0.0 2.0 0.00 0.00 0.00 48 1011.8
20260902234306 97 100 1.0 2.0 0.00 0.00 0.00 47 1011.9
20260902233805 97 138 1.0 3.0 0.00 0.00 0.00 46 1012.0
20260902233304 96 122 1.0 3.0 0.00 0.00 0.00 49 1011.9
20260902232803 97 107 2.0 6.0 0.00 0.00 0.00 48 1011.9
20260902232258 97 117 1.0 2.0 0.00 0.00 0.00 45 1011.7
20260902231757 98 80 2.0 6.0 0.00 0.00 0.00 44 1011.8
20260902231252 98 38 4.0 6.0 0.00 0.00 0.00 41 1011.8
20260902230747 98 119 0.0 3.0 0.00 0.00 0.00 43 1011.9
20260902230246 98 51 3.0 6.0 0.00 0.00 0.00 42 1011.9
20260902225741 98 27 3.0 5.0 0.00 0.00 0.00 42 1011.9
20260902225236 98 59 2.0 6.0 0.00 0.00 0.00 43 1011.8
20260902224734 98 102 0.0 2.0 0.00 0.00 0.00 43 1011.9
20260902224230 99 91 2.0 5.0 0.00 0.00 0.00 42 1011.8
20260902223726 99 52 4.0 7.0 0.00 0.00 0.00 41 1012.1
20260902223225 99 98 3.0 7.0 0.00 0.00 0.00 42 1011.9
20260902222724 99 302 4.0 7.0 0.00 0.00 0.00 41 1012.1
20260902222219 100 112 0.0 3.0 0.00 0.00 0.00 44 1011.9
20260902221714 100 232 3.0 6.0 0.00 0.00 0.00 42 1011.9
20260902221212 100 82 2.0 3.0 0.00 0.00 0.00 43 1012.0
20260902220703 100 103 3.0 5.0 0.00 0.00 0.00 42 1011.9
20260902220203 100 43 1.0 3.0 0.00 0.00 0.00 40 1012.1
20260902215659 99 22 4.0 7.0 0.00 0.00 0.00 41 1012.0
20260902215154 99 9 3.0 7.0 0.00 0.00 0.00 41 1012.1
20260902214649 99 78 3.0 7.0 0.00 0.00 0.00 41 1012.0
20260902214148 100 76 3.0 9.0 0.00 0.00 0.00 44 1012.0
20260902213644 100 340 5.0 6.0 0.00 0.00 0.00 40 1012.1
20260902213143 98 74 3.0 5.0 0.00 0.00 0.00 43 1012.3
20260902212638 98 47 3.0 8.0 0.00 0.00 0.00 42 1012.2
20260902212135 98 85 4.0 6.0 0.00 0.00 0.00 42 1012.5
20260902211631 98 119 2.0 5.0 0.00 0.00 0.00 43 1012.3
20260902211126 99 72 3.0 8.0 0.00 0.00 0.00 42 1012.5
20260902210625 99 29 3.0 6.0 0.00 0.00 0.00 43 1012.7
20260902210121 98 137 1.0 5.0 0.00 0.00 0.00 43 1012.6
20260902205619 98 45 1.0 8.0 0.00 0.00 0.00 42 1012.6
20260902205115 98 102 1.0 6.0 0.00 0.00 0.00 43 1012.8
20260902204614 98 109 1.0 9.0 0.00 0.00 0.00 41 1012.8
20260902204109 98 54 2.0 5.0 0.00 0.00 0.00 43 1012.8
20260902203605 98 103 3.0 6.0 0.00 0.00 0.00 44 1012.8
20260902203104 99 126 4.0 7.0 0.00 0.00 0.00 43 1013.1
20260902202600 99 348 4.0 7.0 0.00 0.00 0.00 42 1013.2
20260902202056 99 63 6.0 10.0 0.00 0.00 0.00 43 1013.0
20260902201552 98 65 3.0 3.0 0.00 0.00 0.00 47 1013.1
20260902201051 98 127 2.0 6.0 0.00 0.00 0.00 46 1013.1
20260902200546 98 120 1.0 6.0 0.00 0.00 0.00 48 1013.2
20260902200043 97 37 3.0 5.0 0.00 0.00 0.00 44 1013.6
20260902195538 97 117 2.0 6.0 0.00 0.00 0.00 45 1013.4
20260902195036 98 85 3.0 6.0 0.00 0.00 0.00 45 1013.4
20260902194530 98 79 1.0 3.0 0.00 0.00 0.00 43 1013.5
20260902194026 99 150 1.0 7.0 0.00 0.00 0.00 41 1013.9
20260902193522 98 304 3.0 9.0 0.00 0.00 0.00 42 1013.7
20260902193021 98 102 1.0 5.0 0.00 0.00 0.00 44 1013.9
20260902192520 97 133 1.0 8.0 0.00 0.00 0.00 45 1014.0
20260902192019 97 67 4.0 8.0 0.00 0.00 0.00 45 1014.2
20260902191515 97 91 1.0 7.0 0.00 0.00 0.00 43 1014.1
20260902191009 98 101 2.0 6.0 0.00 0.00 0.00 44 1014.4
20260902190504 97 113 1.0 5.0 0.00 0.00 0.00 43 1014.5
20260902190000 97 26 3.0 6.0 0.00 0.00 0.00 42 1014.5
20260902185456 97 47 2.0 8.0 0.00 0.00 0.00 45 1014.4
20260902184951 97 79 4.0 6.0 0.00 0.00 0.00 44 1014.5
20260902184446 98 113 2.0 5.0 0.00 0.00 0.00 49 1014.6
20260902183941 97 115 2.0 6.0 0.00 0.00 0.00 49 1014.7
20260902183438 97 185 2.0 7.0 0.00 0.00 0.00 45 1014.7
20260902182933 97 124 3.0 5.0 0.00 0.00 0.00 45 1014.8
20260902182429 97 145 2.0 3.0 0.00 0.00 0.00 45 1014.9
20260902181925 96 287 1.0 5.0 0.00 0.00 0.00 45 1015.2
20260902181421 96 103 4.0 5.0 0.00 0.00 0.00 46 1015.2
20260902180915 95 80 2.0 7.0 0.00 0.00 0.00 46 1015.5
20260902180410 96 91 2.0 5.0 0.00 0.00 0.00 45 1015.4
20260902175906 96 72 1.0 7.0 0.00 0.00 0.00 47 1015.5
20260902175401 95 133 1.0 6.0 0.00 0.00 0.00 47 1015.9
20260902174856 95 127 2.0 3.0 0.00 0.00 0.00 48 1015.6
20260902174353 95 106 1.0 3.0 0.00 0.00 0.00 47 1015.8
20260902173848 95 87 0.0 2.0 0.00 0.00 0.00 47 1015.9
20260902173348 96 92 4.0 6.0 0.00 0.00 0.00 49 1016.0
20260902172842 95 98 0.0 2.0 0.00 0.00 0.00 48 1016.2
20260902172336 96 104 2.0 3.0 0.00 0.00 0.00 47 1016.1
20260902171832 95 16 1.0 5.0 0.00 0.00 0.00 47 1016.1
20260902171327 95 104 2.0 5.0 0.00 0.00 0.00 48 1016.3
20260902170823 96 140 2.0 2.0 0.00 0.00 0.00 48 1016.6
20260902170319 95 116 0.0 2.0 0.00 0.00 0.00 50 1016.4
20260902165814 95 139 3.0 5.0 0.00 0.00 0.00 49 1016.4
20260902165313 94 85 2.0 3.0 0.00 0.00 0.00 49 1016.5
20260902164808 95 134 1.0 5.0 0.00 0.00 0.00 48 1016.6
20260902164303 93 118 0.0 3.0 0.00 0.00 0.00 49 1016.7
20260902163752 93 107 0.0 3.0 0.00 0.00 0.00 49 1016.7
20260902163251 93 92 3.0 5.0 0.00 0.00 0.00 50 1016.6
20260902162749 93 81 0.0 3.0 0.00 0.00 0.00 51 1016.6
20260902162245 93 139 2.0 2.0 0.00 0.00 0.00 50 1016.9
20260902161739 93 127 1.0 2.0 0.00 0.00 0.00 51 1016.9
20260902161235 94 150 2.0 5.0 0.00 0.00 0.00 51 1017.0
20260902160732 93 45 1.0 3.0 0.00 0.00 0.00 52 1016.8
20260902160226 93 67 2.0 2.0 0.00 0.00 0.00 52 1016.8
20260902155724 93 113 1.0 3.0 0.00 0.00 0.00 54 1016.9
20260902155223 92 99 1.0 1.0 0.00 0.00 0.00 54 1016.9
20260902154718 91 95 2.0 5.0 0.00 0.00 0.00 57 1016.9
20260902154212 92 118 2.0 5.0 0.00 0.00 0.00 56 1016.8
20260902153706 92 130 1.0 2.0 0.00 0.00 0.00 54 1017.1
20260902153207 91 125 0.0 1.0 0.00 0.00 0.00 57 1016.8
20260902152703 91 102 0.0 2.0 0.00 0.00 0.00 57 1016.9
20260902152158 90 90 2.0 3.0 0.00 0.00 0.00 59 1017.0
20260902151654 90 128 0.0 2.0 0.00 0.00 0.00 59 1016.9
20260902151148 89 95 1.0 1.0 0.00 0.00 0.00 59 1016.9
20260902150643 88 122 0.0 3.0 0.00 0.00 0.00 61 1017.0
20260902150139 89 75 3.0 5.0 0.00 0.00 0.00 61 1017.0
20260902145633 89 75 1.0 3.0 0.00 0.00 0.00 60 1017.0
20260902145133 88 97 2.0 5.0 0.00 0.00 0.00 62 1017.1
20260902144629 89 51 1.0 2.0 0.00 0.00 0.00 60 1017.0
20260902144124 89 110 1.0 3.0 0.00 0.00 0.00 61 1016.9
20260902143619 88 143 0.0 2.0 0.00 0.00 0.00 61 1016.9
20260902143115 90 86 2.0 2.0 0.00 0.00 0.00 60 1017.0
20260902142610 89 128 1.0 2.0 0.00 0.00 0.00 61 1017.0
20260902142106 88 89 1.0 1.0 0.00 0.00 0.00 62 1016.8
20260902141605 87 103 1.0 2.0 0.00 0.00 0.00 63 1016.7
20260902141101 87 85 1.0 2.0 0.00 0.00 0.00 63 1016.8
20260902140555 87 98 0.0 1.0 0.00 0.00 0.00 64 1016.9
20260902140051 87 130 1.0 2.0 0.00 0.00 0.00 64 1017.0
20260902135550 86 133 2.0 3.0 0.00 0.00 0.00 66 1017.1
20260902135051 86 136 1.0 2.0 0.00 0.00 0.00 65 1017.1
20260902134546 86 159 2.0 3.0 0.00 0.00 0.00 66 1017.0
20260902134041 85 138 1.0 3.0 0.00 0.00 0.00 67 1017.1
20260902133535 85 102 3.0 5.0 0.00 0.00 0.00 67 1017.1
20260902133030 85 102 0.0 3.0 0.00 0.00 0.00 68 1017.0
20260902132525 85 124 1.0 3.0 0.00 0.00 0.00 69 1017.4
20260902132020 85 127 1.0 1.0 0.00 0.00 0.00 69 1016.9
20260902131517 84 135 1.0 2.0 0.00 0.00 0.00 69 1016.8
20260902131016 84 113 0.0 2.0 0.00 0.00 0.00 70 1017.1
20260902130512 84 137 0.0 2.0 0.00 0.00 0.00 70 1016.9
20260902130008 83 131 0.0 2.0 0.00 0.00 0.00 71 1016.8
20260902125503 83 142 2.0 5.0 0.00 0.00 0.00 70 1016.8
20260902124958 82 131 1.0 2.0 0.00 0.00 0.00 72 1016.9
20260902124455 81 163 1.0 3.0 0.00 0.00 0.00 73 1016.9
20260902123949 81 122 1.0 2.0 0.00 0.00 0.00 74 1016.7
20260902123446 80 168 1.0 2.0 0.00 0.00 0.00 74 1016.7
20260902122944 80 131 1.0 1.0 0.00 0.00 0.00 75 1016.4
20260902122440 80 175 1.0 3.0 0.00 0.00 0.00 75 1016.6
20260902121936 80 145 1.0 3.0 0.00 0.00 0.00 75 1016.5
20260902121436 80 127 1.0 2.0 0.00 0.00 0.00 76 1016.3
20260902120930 80 129 0.0 1.0 0.00 0.00 0.00 77 1016.5
20260902120427 80 135 0.0 1.0 0.00 0.00 0.00 77 1016.6
20260902115926 80 131 0.0 1.0 0.00 0.00 0.00 76 1016.4
20260902115422 80 138 1.0 2.0 0.00 0.00 0.00 76 1016.5
20260902114919 80 146 1.0 2.0 0.00 0.00 0.00 76 1016.5
20260902114414 80 130 1.0 1.0 0.00 0.00 0.00 76 1016.6
20260902113909 80 129 0.0 1.0 0.00 0.00 0.00 76 1016.6
20260902113405 80 126 0.0 1.0 0.00 0.00 0.00 76 1016.5
20260902112904 80 127 0.0 0.0 0.00 0.00 0.00 75 1016.5
20260902112401 80 124 0.0 0.0 0.00 0.00 0.00 76 1016.8
20260902111856 80 127 0.0 0.0 0.00 0.00 0.00 76 1016.7
20260902111353 80 144 0.0 1.0 0.00 0.00 0.00 76 1016.6
20260902110848 80 130 0.0 0.0 0.00 0.00 0.00 76 1016.8
20260902110344 80 128 0.0 1.0 0.00 0.00 0.00 76 1016.7
20260902105843 80 114 0.0 0.0 0.00 0.00 0.00 76 1016.5
20260902105338 80 144 0.0 2.0 0.00 0.00 0.00 76 1016.6
20260902104833 80 138 1.0 1.0 0.00 0.00 0.00 76 1016.8
20260902104329 80 137 0.0 1.0 0.00 0.00 0.00 76 1016.7
20260902103824 80 136 1.0 1.0 0.00 0.00 0.00 76 1016.8
20260902103319 80 128 0.0 1.0 0.00 0.00 0.00 77 1016.7
20260902102814 80 128 0.0 0.0 0.00 0.00 0.00 76 1016.7
20260902102312 80 137 0.0 0.0 0.00 0.00 0.00 76 1016.7
20260902101807 80 127 0.0 0.0 0.00 0.00 0.00 76 1016.5
20260902101301 80 131 0.0 0.0 0.00 0.00 0.00 75 1016.5
20260902100801 80 120 0.0 1.0 0.00 0.00 0.00 75 1016.5
20260902100255 80 119 0.0 2.0 0.00 0.00 0.00 74 1016.4
20260902095750 80 121 0.0 0.0 0.00 0.00 0.00 75 1016.5
20260902095250 80 115 0.0 0.0 0.00 0.00 0.00 75 1016.5
20260902094744 80 128 0.0 0.0 0.00 0.00 0.00 74 1016.5
20260902094241 80 118 0.0 1.0 0.00 0.00 0.00 74 1016.5
20260902093740 80 117 0.0 1.0 0.00 0.00 0.00 74 1016.5
20260902093235 81 116 0.0 0.0 0.00 0.00 0.00 73 1016.4
20260902092734 81 113 0.0 0.0 0.00 0.00 0.00 73 1016.3
20260902092229 81 119 0.0 0.0 0.00 0.00 0.00 73 1016.6
20260902091724 81 120 0.0 0.0 0.00 0.00 0.00 72 1016.5
20260902091220 81 128 0.0 0.0 0.00 0.00 0.00 71 1016.6
20260902090716 81 127 0.0 1.0 0.00 0.00 0.00 71 1016.4
20260902090215 81 117 0.0 1.0 0.00 0.00 0.00 71 1016.6
20260902085710 82 90 0.0 1.0 0.00 0.00 0.00 71 1016.5
20260902085205 82 122 0.0 0.0 0.00 0.00 0.00 70 1016.6
20260902084701 82 113 0.0 0.0 0.00 0.00 0.00 70 1016.5
20260902084157 82 94 0.0 0.0 0.00 0.00 0.00 70 1016.4
20260902083652 82 124 1.0 1.0 0.00 0.00 0.00 69 1016.6
20260902083151 82 120 0.0 0.0 0.00 0.00 0.00 69 1016.7
20260902082647 82 124 0.0 1.0 0.00 0.00 0.00 69 1016.5
20260902082144 82 151 0.0 1.0 0.00 0.00 0.00 69 1016.5
20260902081639 82 117 0.0 0.0 0.00 0.00 0.00 69 1016.6
20260902081134 83 112 0.0 1.0 0.00 0.00 0.00 69 1016.7
20260902080629 83 126 0.0 1.0 0.00 0.00 0.00 68 1016.6
20260902080126 83 110 1.0 1.0 0.00 0.00 0.00 68 1016.5
20260902075625 83 147 1.0 2.0 0.00 0.00 0.00 68 1016.7
20260902075122 83 122 1.0 1.0 0.00 0.00 0.00 68 1016.5
20260902074617 83 111 0.0 1.0 0.00 0.00 0.00 67 1016.5
20260902074112 84 110 1.0 1.0 0.00 0.00 0.00 67 1016.7
20260902073607 84 171 1.0 2.0 0.00 0.00 0.00 67 1016.9
20260902073103 84 132 1.0 2.0 0.00 0.00 0.00 67 1016.5
20260902072559 84 129 0.0 2.0 0.00 0.00 0.00 67 1016.8
20260902072056 84 140 1.0 1.0 0.00 0.00 0.00 67 1016.7
20260902071555 84 150 0.0 1.0 0.00 0.00 0.00 66 1016.8
20260902071051 84 132 0.0 2.0 0.00 0.00 0.00 66 1016.9
20260902070547 84 127 0.0 2.0 0.00 0.00 0.00 66 1016.8
20260902070041 84 121 1.0 1.0 0.00 0.00 0.00 66 1016.7
20260902065535 85 164 1.0 2.0 0.00 0.00 0.00 66 1016.7
20260902065030 85 127 2.0 2.0 0.00 0.00 0.00 65 1016.6
20260902064526 85 140 0.0 1.0 0.00 0.00 0.00 65 1016.6
20260902064022 85 150 1.0 2.0 0.00 0.00 0.00 65 1016.6
20260902063521 85 126 1.0 2.0 0.00 0.00 0.00 65 1016.6
20260902063016 85 98 0.0 2.0 0.00 0.00 0.00 65 1016.7
20260902062514 85 106 1.0 2.0 0.00 0.00 0.00 65 1016.5
20260902062010 85 107 1.0 1.0 0.00 0.00 0.00 65 1016.7
20260902061504 85 157 0.0 2.0 0.00 0.00 0.00 65 1016.5
20260902061000 85 133 0.0 2.0 0.00 0.00 0.00 65 1016.6
20260902060457 85 129 1.0 2.0 0.00 0.00 0.00 64 1016.4
20260902055952 85 125 0.0 2.0 0.00 0.00 0.00 64 1016.6
20260902055448 86 146 1.0 3.0 0.00 0.00 0.00 64 1016.6
20260902054944 86 89 3.0 5.0 0.00 0.00 0.00 64 1016.3
20260902054438 86 146 2.0 2.0 0.00 0.00 0.00 63 1016.2
20260902053934 86 130 1.0 2.0 0.00 0.00 0.00 64 1016.2
20260902053429 86 127 0.0 2.0 0.00 0.00 0.00 63 1016.2
20260902052928 86 124 1.0 2.0 0.00 0.00 0.00 63 1016.2
20260902052423 86 108 2.0 2.0 0.00 0.00 0.00 62 1016.1
20260902051919 87 129 1.0 1.0 0.00 0.00 0.00 61 1016.1
20260902051414 87 133 0.0 2.0 0.00 0.00 0.00 61 1016.0
20260902050913 87 83 1.0 3.0 0.00 0.00 0.00 61 1015.9
20260902050412 87 141 2.0 5.0 0.00 0.00 0.00 60 1016.2
20260902045907 87 116 1.0 3.0 0.00 0.00 0.00 61 1016.1
20260902045402 88 141 2.0 3.0 0.00 0.00 0.00 60 1016.1
20260902044859 88 156 2.0 3.0 0.00 0.00 0.00 59 1016.1
20260902044354 88 96 3.0 6.0 0.00 0.00 0.00 59 1016.1
20260902043849 88 145 3.0 6.0 0.00 0.00 0.00 58 1016.1
20260902043344 89 144 3.0 8.0 0.00 0.00 0.00 58 1016.0
20260902042839 89 148 2.0 3.0 0.00 0.00 0.00 58 1015.9
20260902042338 89 129 2.0 5.0 0.00 0.00 0.00 58 1015.9
20260902041833 90 161 3.0 7.0 0.00 0.00 0.00 56 1015.7
20260902041328 90 117 1.0 2.0 0.00 0.00 0.00 57 1015.6
20260902040826 89 143 0.0 1.0 0.00 0.00 0.00 59 1015.6
20260902040323 90 148 1.0 2.0 0.00 0.00 0.00 57 1015.2